Location: Newark
(40.9833°N, 0.0333°W)
Time: 02:03:38
(UTC+00:00)

Altair - Pass Details

Date: 29 October 2020
Orbit: 1502 x 1682 km, 47.2° (Epoch: 02 December)

Event Time Altitude Azimuth Distance (km) Brightness Sun altitude
Rises 03:22:17 0° 206° (SSW) 4,621 - -35.4°
Reaches altitude 10° 03:25:32 10° 199° (SSW) 3,648 - -34.8°
Exits shadow 03:29:35 26° 180° (S) 2,611 8.5 -34.0°
Maximum altitude 03:33:47 39° 134° (SE) 2,136 8.4 -33.3°
Drops below altitude 10° 03:42:15 10° 70° (ENE) 3,747 10.4 -31.7°
Sets 03:45:36 0° 63° (ENE) 4,758 11.1 -31.1°
